Theta_e
342 340 340 340 341 340 341 340 342 342 345 347 348 348 347 347 349 351 352 356 359 360 362 363 364 364 363 363 363 363 361 362 364 363 361 361 361 361 361 360 361 362 360 358 361 362 363 364 364 363 367 367 370 369 373 370 368 367 371 376 368 370 369
341 341 340 339 340 341 342 343 343 343 346 348 348 350 350 347 349 350 354 357 358 359 360 362 362 363 363 363 363 364 363 362 363 364 362 363 364 364 363 362 361 363 367 362 365 363 366 362 365 366 367 369 368 374 370 369 371 370 369 370 366 370 371
341 342 342 341 341 340 344 344 342 343 346 348 348 348 349 350 350 353 355 356 357 358 359 360 363 361 363 363 362 363 363 361 363 361 361 359 362 360 363 364 364 362 363 362 364 362 365 366 364 368 366 366 364 366 371 372 371 367 371 374 368 365 367
339 341 342 342 342 344 344 346 344 344 345 346 347 348 349 351 352 353 354 355 354 355 357 357 359 359 359 361 361 363 362 362 363 360 357 359 359 359 361 363 365 364 362 362 359 361 359 362 363 366 365 367 366 365 367 367 367 367 370 373 365 366 371
338 341 342 342 341 341 342 343 345 346 347 346 349 351 351 351 351 351 353 352 351 351 352 352 354 355 358 359 357 358 360 361 361 361 360 358 360 360 359 359 361 361 361 361 364 360 367 365 365 365 364 367 365 369 370 369 368 370 370 372 367 367 368
338 338 339 340 340 340 342 343 344 345 347 348 350 350 352 351 351 351 353 353 350 349 351 352 351 353 354 355 354 353 358 360 362 363 361 361 360 359 358 360 358 360 358 361 361 363 364 365 364 364 363 361 361 363 364 366 364 366 369 370 369 364 363
340 341 340 343 344 345 342 342 342 344 347 349 350 352 352 353 353 354 354 353 351 350 349 349 350 351 354 354 354 355 355 356 358 358 358 359 360 359 359 359 361 359 360 361 361 363 363 363 365 366 364 363 362 361 364 366 364 365 367 369 368 368 366
340 342 344 345 342 341 342 345 346 346 348 349 351 351 352 355 357 356 356 354 354 353 353 352 350 353 353 354 353 353 354 354 355 358 358 356 357 358 359 360 360 362 361 359 361 362 362 364 363 363 364 362 363 364 363 367 369 366 365 367 368 368 364
341 343 343 342 344 345 348 350 348 347 352 352 350 353 356 357 359 357 358 358 356 353 354 351 352 356 356 355 355 354 353 353 355 355 355 354 353 354 355 358 360 361 360 358 358 362 362 362 362 363 364 362 362 365 365 369 368 363 364 365 366 368 365
343 343 345 342 345 346 348 350 358 356 351 352 354 355 357 358 361 360 360 362 363 358 354 353 357 357 359 358 357 355 354 354 353 353 354 352 352 352 355 355 356 360 359 358 358 358 361 362 362 362 365 361 363 366 365 366 365 364 363 364 368 368 365
343 344 344 344 344 346 348 354 351 355 355 355 357 357 359 360 362 362 361 362 362 362 361 357 358 359 358 359 360 358 356 353 352 352 353 353 352 352 353 354 355 357 358 358 358 357 359 361 362 363 365 361 362 365 366 366 366 364 361 362 363 362 360
345 344 345 345 347 347 347 351 351 351 354 355 355 357 358 360 361 361 362 363 363 361 362 362 359 358 360 362 362 360 358 356 354 352 352 352 353 352 352 353 354 354 354 356 357 359 357 358 360 360 364 365 363 363 364 365 365 366 364 362 362 362 363
346 347 349 347 349 349 351 351 349 349 351 353 355 354 355 357 359 360 360 361 362 362 362 363 361 363 362 364 365 364 361 356 356 353 352 352 354 353 353 353 353 353 352 354 356 357 356 356 359 360 359 364 361 359 363 365 363 366 366 364 364 362 363
343 345 346 348 347 349 350 351 351 352 353 353 352 352 353 358 360 360 361 360 361 361 361 362 364 364 364 364 364 364 361 360 358 356 356 356 358 355 354 354 354 354 354 354 354 354 356 355 355 358 360 359 359 359 360 361 362 364 365 364 363 362 363
341 343 345 342 344 350 349 349 350 351 351 353 354 354 354 355 355 357 360 362 362 362 362 363 365 363 362 362 361 362 364 363 360 360 360 359 359 358 357 356 356 355 356 356 354 354 355 357 355 356 357 358 359 359 357 355 357 358 360 362 364 364 361
340 341 343 345 344 345 348 349 349 350 351 352 352 352 351 352 354 355 355 358 358 358 361 362 363 360 359 359 359 363 365 365 365 364 364 362 362 363 361 358 359 357 357 356 356 357 359 359 357 356 355 356 358 357 354 353 352 360 364 363 360 361 358
338 339 340 342 344 344 347 348 349 352 352 352 351 352 352 353 353 354 355 356 357 358 357 356 355 357 357 357 360 361 364 365 365 365 361 365 365 366 367 362 359 358 359 359 359 361 363 359 358 357 355 353 355 357 354 353 353 357 344 347 353 360 360
339 339 339 341 343 345 345 346 347 348 349 351 352 353 353 353 354 354 354 356 357 356 358 357 355 354 354 354 357 359 361 362 363 360 354 358 367 368 367 367 366 365 362 357 358 363 361 359 359 359 358 356 355 354 353 353 359 339 341 344 345 360 358
338 338 339 339 340 341 342 343 344 345 346 347 347 348 350 353 353 353 354 355 357 358 357 355 354 356 357 357 357 357 357 358 359 362 360 356 357 367 367 368 368 365 362 360 361 360 360 361 358 358 357 356 356 351 350 349 342 336 339 341 340 345 361
336 337 338 338 339 339 340 340 341 343 345 346 346 347 348 348 347 347 349 351 352 352 352 352 351 352 354 354 353 358 357 359 358 356 358 360 360 361 360 360 361 362 361 361 360 360 359 358 359 358 358 356 354 356 350 351 345 337 337 338 337 339 350
335 336 336 336 337 338 339 340 340 341 342 342 343 344 345 344 344 345 345 346 345 347 346 346 346 345 345 346 345 347 350 355 357 357 356 357 357 357 358 358 358 358 361 360 358 358 358 356 356 355 356 354 352 351 348 344 326 328 331 331 333 334 349
334 334 334 335 335 336 336 337 338 339 339 342 342 341 343 342 342 342 342 342 341 341 341 340 339 340 341 342 343 342 342 343 347 351 353 353 352 352 353 354 355 354 357 357 357 357 357 359 357 358 355 355 354 352 351 344 323 324 326 327 329 333 353
333 334 333 334 334 333 335 335 334 336 338 338 337 339 340 340 340 340 340 339 339 337 336 335 335 335 337 338 340 342 343 343 343 341 341 343 347 348 349 350 351 353 353 353 355 355 356 352 353 354 351 350 350 351 349 350 325 319 320 322 324 337 358
333 332 332 331 332 333 335 335 336 336 336 336 337 338 339 340 340 339 338 337 337 336 334 333 331 332 333 334 337 338 340 340 340 338 337 338 340 342 343 346 346 346 349 349 350 349 347 347 349 351 351 349 349 351 352 344 326 317 316 318 321 338 356
326 326 326 326 326 327 326 327 327 329 332 334 333 335 337 337 337 335 335 335 335 335 333 331 331 332 331 332 334 336 336 336 337 335 335 335 337 339 341 344 345 346 346 347 349 349 350 350 345 346 349 348 346 347 350 344 332 315 315 316 320 341 358
321 322 322 322 323 323 324 326 326 326 325 324 326 328 331 331 331 331 331 331 332 332 332 332 332 332 332 332 333 335 334 336 339 339 338 338 338 338 339 339 339 342 347 346 346 345 348 349 348 346 347 349 345 346 344 340 333 325 312 313 317 326 357
324 323 323 322 323 327 323 322 322 321 322 324 325 325 326 327 327 327 328 329 329 329 330 332 334 334 334 334 333 333 335 335 336 337 338 337 338 336 337 339 339 340 343 345 344 346 346 343 345 345 344 346 346 346 345 342 335 327 312 310 312 318 335
327 327 327 325 325 324 321 321 322 322 322 323 322 322 322 325 326 326 326 324 323 325 329 330 332 332 332 333 332 331 330 333 335 336 338 339 339 338 338 340 342 342 343 347 346 342 340 340 340 341 340 341 342 340 338 338 336 335 319 312 310 311 317
325 326 324 324 323 322 321 321 322 321 322 322 324 324 325 326 326 326 325 324 325 325 325 326 328 329 330 330 329 329 330 331 331 334 334 338 338 337 337 338 340 341 342 342 342 340 337 338 337 336 337 338 339 339 335 334 333 329 331 317 310 310 313
326 325 325 326 328 324 324 321 321 321 323 324 325 325 326 326 326 326 325 325 327 327 327 327 327 328 328 328 326 325 325 326 327 330 331 334 337 337 338 337 338 341 341 341 340 337 336 336 337 336 335 334 336 338 337 335 332 327 327 329 316 312 311
324 322 323 324 324 325 324 323 322 320 322 323 323 324 326 325 323 323 323 325 327 326 327 326 326 327 326 325 327 327 323 323 325 326 329 331 333 335 336 336 336 335 337 339 337 337 336 337 337 335 333 333 333 336 336 335 335 332 330 329 328 321 319
324 324 323 322 321 322 323 324 323 322 320 319 320 321 324 323 323 323 324 324 325 326 327 327 327 326 326 326 326 328 329 326 322 321 325 326 328 329 331 333 334 334 335 333 332 334 333 333 333 332 334 333 333 334 334 335 335 336 338 337 335 331 322
323 322 322 321 323 323 321 317 318 319 319 318 319 320 319 320 321 324 325 325 325 324 327 328 326 323 324 325 326 323 324 325 325 325 324 326 325 323 324 326 328 332 333 332 331 331 328 330 330 329 329 330 330 332 335 336 337 336 334 336 337 333 334
323 322 323 324 323 323 321 319 316 316 315 315 318 322 318 318 318 319 322 322 325 325 326 327 328 325 324 324 324 326 326 321 318 325 322 320 325 325 325 326 327 326 326 326 326 326 329 330 328 326 326 326 328 331 332 331 328 327 326 326 327 328 330
325 325 324 322 323 323 322 320 319 318 317 317 317 316 317 319 320 319 322 323 325 328 327 327 327 328 325 325 325 321 326 322 323 324 325 328 327 323 323 321 323 328 328 323 323 321 320 323 325 325 325 327 328 326 328 329 324 320 307 314 305 316 326
323 324 325 326 325 323 323 321 322 320 319 319 322 321 320 319 319 320 320 322 324 326 327 326 325 323 322 324 323 325 325 325 324 322 326 325 326 328 326 319 311 318 323 322 318 307 302 307 320 320 323 325 327 324 322 319 318 302 297 296 296 296 297
322 320 320 321 320 321 322 322 321 320 319 321 321 321 321 321 321 321 322 322 322 324 325 326 324 323 322 322 320 320 324 324 324 326 326 326 325 326 326 327 323 302 307 318 318 308 298 297 298 302 308 321 324 316 307 306 300 295 295 296 296 294 294
324 323 321 321 320 321 321 321 321 321 320 320 320 319 320 319 320 320 320 322 323 324 324 323 322 321 320 321 322 323 323 324 323 324 324 325 325 327 323 325 326 322 307 302 306 303 299 299 300 300 299 301 309 322 323 312 302 296 296 296 295 295 294
Wind_Speed
18 18 17 15 15 15 16 16 16 14 13 13 12 13 13 11 11 11 11 12 12 13 13 12 11 10 11 9 9 9 9 8 8 7 7 6 5 5 6 6 6 4 4 6 5 5 5 4 3 5 5 5 5 5 4 3 3 3 2 2 3 3 4
14 14 16 16 16 16 16 17 16 14 13 13 13 13 12 13 11 11 11 12 12 13 13 12 11 10 10 9 9 9 10 9 9 7 7 6 5 5 5 5 5 5 4 3 5 5 5 6 5 5 5 5 5 4 4 4 3 3 3 3 3 2 2
15 16 16 16 15 15 15 16 16 14 14 13 14 13 13 12 12 11 11 12 12 12 12 12 11 11 10 10 10 10 10 10 9 9 9 8 8 8 6 5 5 5 6 5 5 5 6 6 6 5 5 6 6 5 4 4 4 4 3 3 3 4 3
16 14 14 15 15 14 15 14 16 15 14 14 14 14 13 13 13 12 11 12 13 12 12 12 12 12 11 11 10 10 10 10 9 9 9 8 9 8 7 7 6 6 6 6 6 6 6 6 7 6 6 5 5 6 6 5 5 5 4 4 4 4 3
16 14 9 9 14 15 15 13 14 14 14 15 14 13 13 13 12 12 12 12 13 13 13 13 11 11 10 11 9 9 10 11 10 8 9 8 8 8 8 8 7 7 6 6 5 5 2 5 6 6 7 6 6 6 5 6 6 5 5 5 4 1 3
14 14 13 11 12 15 14 15 16 15 14 14 14 12 11 13 12 13 13 12 11 12 12 12 12 12 11 11 10 10 10 10 9 8 8 8 8 8 8 8 8 8 8 7 6 6 6 6 6 7 7 8 7 7 7 7 7 7 6 6 3 3 2
12 12 14 9 5 8 14 15 16 16 14 12 12 11 10 11 12 11 11 11 12 12 13 13 12 12 11 10 10 10 11 11 10 10 9 9 9 8 8 8 8 7 7 7 7 7 7 7 6 6 7 7 7 8 7 6 6 6 5 5 6 7 6
11 11 10 8 12 12 11 10 13 14 13 11 11 11 11 10 10 11 10 10 10 9 9 11 11 10 10 9 10 11 11 11 10 10 10 10 10 10 9 8 8 8 7 7 8 7 7 7 7 7 7 8 7 7 6 7 5 6 6 6 7 6 6
19 16 13 11 12 13 9 10 11 11 10 11 11 11 12 11 10 10 11 10 11 11 10 10 10 9 9 9 9 10 10 10 10 10 11 12 10 11 11 9 9 8 8 8 7 8 8 8 8 7 7 7 6 6 6 6 7 7 7 6 7 7 6
13 14 15 15 6 12 11 11 7 6 9 9 9 11 12 10 9 9 9 9 10 12 13 12 9 8 9 9 9 10 10 10 9 11 11 12 10 11 11 10 10 9 9 9 8 8 9 8 8 8 7 8 6 7 7 7 7 7 7 7 7 6 6
11 11 14 17 16 15 14 10 8 7 8 7 8 10 10 10 10 9 9 9 9 9 10 10 9 9 10 10 10 9 9 9 10 10 11 11 10 12 12 11 10 9 9 10 9 9 8 8 8 7 8 8 8 7 8 7 8 8 8 7 7 7 7
11 12 13 15 15 16 14 12 9 8 8 8 8 8 9 9 9 8 8 9 8 8 8 8 8 9 11 10 10 10 10 9 10 10 11 11 10 11 11 11 11 11 12 10 9 9 9 8 9 8 8 8 8 8 8 7 7 7 8 8 7 7 7
7 6 6 11 9 10 10 10 12 10 11 10 9 8 6 6 6 6 7 8 7 7 7 7 7 8 9 9 10 10 11 11 10 10 10 10 9 10 10 10 10 10 10 10 10 9 9 9 9 8 9 9 9 9 8 8 8 7 8 8 7 7 7
9 7 6 7 5 8 10 10 10 11 11 11 10 9 8 7 6 7 7 7 7 6 6 5 5 6 6 7 9 9 10 10 11 11 9 8 8 8 8 8 9 10 10 8 9 10 10 11 10 9 9 9 9 9 8 9 9 9 8 8 8 8 8
10 11 11 13 9 6 8 9 9 10 10 10 9 9 8 7 8 8 6 6 7 7 6 6 4 5 7 7 7 8 8 8 9 9 9 8 7 7 8 8 9 9 8 8 8 9 10 10 10 9 10 9 9 9 9 9 10 9 8 8 8 8 8
7 7 8 8 11 9 8 7 6 9 10 10 9 9 9 8 8 8 8 7 6 6 6 6 6 5 5 6 7 5 5 6 6 7 9 10 8 8 9 9 9 8 9 9 10 9 7 9 9 10 10 10 10 10 10 9 8 8 10 8 7 8 7
8 6 5 6 8 10 10 9 9 9 9 9 8 8 7 8 9 8 7 6 7 7 8 8 8 8 7 6 6 6 3 3 5 3 7 7 8 8 9 9 8 8 8 9 8 8 8 8 10 10 10 11 10 10 10 9 8 9 12 8 1 4 6
9 8 7 6 6 7 8 9 9 8 7 7 7 6 5 4 5 6 5 5 5 6 4 3 5 7 9 9 9 9 8 6 5 3 6 6 4 6 6 7 7 7 8 9 10 8 9 10 10 10 10 9 10 10 9 9 5 14 13 13 11 6 7
10 10 9 10 11 10 10 9 9 9 8 7 7 6 5 4 5 4 4 5 2 2 4 5 7 7 6 6 7 9 9 8 8 6 5 7 8 3 3 3 5 7 8 9 9 9 9 9 10 10 10 10 9 10 10 11 9 12 13 13 11 9 7
9 9 9 9 9 9 9 7 7 7 7 8 8 7 7 7 8 7 5 4 3 3 3 3 4 3 1 2 7 6 7 6 7 8 7 6 4 4 4 5 5 6 7 7 8 9 9 10 10 9 8 9 9 8 10 6 5 7 12 12 11 10 7
8 10 10 10 9 8 9 10 10 10 9 8 8 8 8 8 7 6 6 5 6 5 5 5 6 6 5 6 9 8 6 5 6 6 6 6 5 4 6 5 3 5 6 6 6 6 7 8 8 8 9 8 8 7 6 9 13 15 11 5 3 5 5
8 9 9 9 10 9 10 10 9 10 9 8 7 7 8 8 7 7 8 8 9 9 9 8 7 6 6 7 7 4 5 7 4 2 5 5 4 4 5 6 5 6 5 6 6 6 6 5 7 6 3 7 8 9 8 5 11 9 9 8 6 2 5
10 10 10 11 11 11 10 8 7 8 9 10 11 10 8 9 9 9 9 9 9 9 10 10 9 8 8 8 6 5 5 5 5 7 9 7 2 4 5 5 3 1 3 5 6 7 5 5 7 6 4 3 4 6 3 3 9 7 4 4 5 4 5
12 11 11 11 11 11 11 10 10 9 9 11 11 11 10 9 9 9 10 11 10 10 10 10 9 8 8 8 7 7 7 7 7 8 6 1 2 1 2 3 2 2 3 4 5 4 5 4 2 1 2 1 3 4 4 5 7 7 7 6 6 3 4
13 12 11 11 11 11 11 11 11 12 11 11 11 9 8 9 10 10 10 10 10 9 9 9 9 8 8 8 8 7 6 6 6 6 4 3 3 1 1 1 2 3 3 3 2 2 3 1 1 2 2 3 5 8 5 6 6 9 8 8 7 4 2
11 10 12 13 12 11 9 8 10 11 11 11 10 10 10 10 10 10 8 9 9 9 9 9 8 8 7 7 7 7 6 5 5 5 4 4 3 3 3 3 2 2 2 2 2 3 4 3 2 3 3 3 5 6 6 7 7 9 12 12 11 7 1
10 11 12 11 9 9 9 9 10 11 11 10 10 10 10 9 9 9 9 9 10 10 9 8 8 7 7 6 6 6 7 6 5 4 4 4 4 4 4 3 2 2 1 3 3 2 4 6 4 5 6 5 5 6 5 6 7 8 11 12 13 13 8
12 12 11 8 8 9 9 8 8 9 9 9 9 9 9 9 9 9 8 9 9 9 8 8 7 7 7 7 7 7 7 6 3 2 4 4 4 5 4 4 3 4 1 1 5 6 6 5 4 5 5 6 6 6 6 8 9 5 8 9 11 12 13
13 10 9 10 10 8 8 8 9 10 10 10 10 9 8 9 9 8 8 9 9 7 7 6 6 6 6 6 5 5 5 5 5 5 4 4 4 4 4 5 6 5 4 4 7 6 6 6 5 5 4 5 6 5 5 5 4 6 5 6 8 9 10
11 9 10 10 10 13 14 11 9 9 10 9 9 8 8 8 8 8 8 8 6 6 5 4 4 4 5 5 5 5 5 5 3 3 2 3 3 4 5 5 4 4 3 3 4 5 4 4 4 4 3 4 5 5 4 5 5 4 4 4 5 5 5
10 11 9 9 9 12 11 12 12 9 8 7 8 8 7 7 7 8 8 6 5 5 4 4 4 4 4 4 1 2 3 3 2 2 1 0 1 2 3 4 3 4 3 3 4 3 3 4 4 4 4 3 4 4 4 4 4 5 4 3 3 3 0
9 9 10 9 9 8 8 5 6 10 10 8 7 6 7 6 6 7 6 5 5 5 5 4 5 4 3 2 2 2 1 4 4 2 1 1 1 1 2 3 3 3 3 3 3 2 2 4 3 2 1 4 5 4 4 4 3 4 4 3 3 4 5
7 7 7 7 6 5 4 5 4 5 6 8 10 6 6 7 5 5 2 2 2 4 3 2 2 2 1 1 2 3 2 3 2 1 3 1 1 3 3 2 3 3 3 3 2 3 2 2 2 1 2 2 0 2 3 3 6 6 5 5 5 4 3
12 10 8 8 8 7 6 6 6 5 5 4 2 6 8 7 6 5 6 5 5 4 2 2 3 2 2 2 2 1 3 3 1 4 3 3 5 6 6 5 5 5 5 5 6 6 3 2 2 3 5 6 5 4 2 6 9 7 6 6 5 5 5
7 7 9 10 8 6 5 5 6 6 5 4 3 4 4 3 4 4 3 3 4 4 4 3 3 3 1 1 2 3 2 1 3 4 3 4 4 6 7 7 6 6 5 8 7 6 5 6 4 5 5 4 4 5 5 6 7 5 4 4 4 4 5
6 6 4 3 2 4 6 6 6 6 5 4 4 4 4 4 3 2 4 4 4 4 4 4 3 4 5 6 6 7 5 4 5 4 6 5 4 5 6 8 8 7 6 5 6 7 7 6 5 4 5 5 6 6 4 5 4 3 4 5 5 3 3
10 7 5 4 4 2 2 3 4 5 5 3 2 3 2 3 3 3 3 4 4 4 4 4 3 3 4 5 5 6 6 6 5 5 4 5 5 5 2 4 4 8 9 8 7 6 7 7 5 7 8 6 3 7 12 9 5 4 3 2 1 3 4
11 10 9 8 6 5 3 3 4 4 4 4 3 2 2 3 3 2 3 3 4 3 4 5 4 4 5 5 4 4 4 3 4 4 4 3 3 3 3 3 4 5 4 5 4 5 7 8 6 6 7 9 9 5 3 7 8 8 6 5 5 5 4
Wind_Direction
188 190 191 192 186 188 179 183 186 182 177 175 177 183 180 181 170 170 166 167 174 173 178 176 178 177 181 182 182 183 186 183 183 183 187 190 202 197 192 199 196 216 199 196 187 191 193 213 175 193 168 182 194 183 198 199 212 209 188 232 225 168 267
195 193 191 192 187 190 185 180 183 183 180 177 179 186 183 181 173 176 170 169 176 177 178 176 179 179 182 185 184 182 191 188 187 186 187 185 194 197 204 192 211 184 227 230 133 215 177 184 193 186 183 183 197 185 190 197 204 229 207 188 223 289 276
199 193 191 190 187 187 188 182 180 184 181 181 182 183 186 183 178 177 173 173 178 179 179 178 181 181 182 186 186 185 191 194 191 191 195 189 189 198 193 199 207 202 202 209 203 186 191 187 188 188 197 197 192 188 202 192 202 208 208 193 229 218 238
190 197 192 187 187 185 190 183 176 180 184 187 184 182 182 182 182 179 182 180 180 181 182 181 183 184 184 183 191 189 192 198 201 197 204 199 190 200 192 195 208 217 198 202 201 221 178 189 173 190 200 196 206 189 200 205 204 196 202 213 230 219 223
180 189 191 200 191 186 190 177 178 183 186 190 181 182 179 178 186 180 188 189 186 185 185 186 185 186 185 186 191 191 194 195 200 208 207 207 202 197 201 203 199 211 207 203 201 191 207 181 184 186 188 207 206 201 199 192 217 190 200 204 235 350 245
173 182 188 196 202 188 182 178 183 185 188 190 173 178 182 181 189 185 188 190 190 189 184 189 185 178 190 187 195 191 192 196 199 204 212 208 208 207 201 206 212 199 199 210 194 196 193 208 214 190 194 194 210 202 203 198 206 204 193 207 195 226 227
170 188 181 178 217 190 177 178 182 183 184 186 176 175 186 182 186 191 193 182 196 191 185 188 191 179 187 188 190 190 193 193 195 203 204 211 206 214 212 205 217 208 212 196 214 203 191 204 218 211 206 214 198 216 196 205 204 204 205 183 213 208 186
174 190 186 164 196 195 175 180 183 182 175 182 182 174 185 186 183 192 185 185 195 190 199 189 192 187 175 198 184 192 193 197 191 199 204 209 205 211 209 214 202 215 218 215 197 215 210 200 207 210 212 215 209 213 205 187 201 219 207 204 208 221 217
172 180 163 187 191 168 169 163 179 179 168 179 185 179 184 181 184 191 187 187 188 193 196 206 192 184 177 189 191 194 195 197 197 198 204 210 211 210 211 203 209 205 214 222 205 200 220 205 213 211 205 224 211 201 213 190 201 219 225 216 210 217 246
165 163 148 182 174 195 167 169 150 135 151 164 179 178 182 179 182 188 185 185 185 192 193 202 196 186 183 186 196 198 199 198 204 204 204 209 211 215 214 209 203 206 213 217 221 212 200 221 215 202 202 212 217 204 217 207 215 218 217 219 220 228 219
164 166 171 168 180 190 176 159 135 128 140 155 164 173 176 176 178 181 183 186 189 193 193 203 200 188 188 190 195 199 210 203 207 212 211 214 211 211 214 215 210 201 214 209 215 225 211 200 218 210 197 210 210 210 216 219 221 225 231 222 222 222 228
160 163 173 167 178 179 177 167 154 148 142 147 165 169 176 177 177 183 181 182 183 189 191 201 205 193 192 188 193 200 204 207 213 216 215 217 218 220 216 213 213 207 204 211 219 216 225 209 205 209 204 213 216 214 216 222 228 228 234 238 229 223 232
138 144 159 152 156 159 164 165 176 170 164 168 170 159 168 171 170 182 178 180 179 184 187 192 196 198 198 188 195 198 203 204 209 216 218 215 221 218 220 224 212 220 224 198 213 220 223 223 213 203 211 209 219 221 218 220 224 227 226 240 243 239 233
141 148 179 126 128 166 172 161 160 161 162 173 176 179 179 167 171 181 176 172 169 173 178 181 189 196 199 197 199 206 210 209 205 214 218 215 213 226 229 223 224 214 224 226 204 214 224 226 215 210 215 212 213 221 219 212 222 221 227 230 236 236 233
160 164 169 155 174 169 177 170 167 163 168 173 161 163 170 175 188 198 181 171 173 172 161 159 181 200 208 211 215 212 216 224 213 205 209 215 213 221 237 226 223 227 225 220 226 214 220 228 231 220 213 215 215 220 224 221 216 220 216 224 233 244 243
140 150 149 155 153 169 177 175 177 178 169 163 168 167 179 185 193 201 195 172 179 177 170 163 167 192 218 223 224 227 221 231 239 216 197 198 200 208 215 225 228 224 219 223 222 226 226 230 229 230 226 221 213 217 224 228 229 216 216 203 223 231 253
136 134 113 115 141 155 156 162 166 172 167 172 180 185 203 195 199 203 198 187 186 190 194 195 193 193 199 210 217 224 246 250 233 236 233 207 202 196 207 219 225 224 224 227 228 229 226 230 233 232 232 230 223 220 225 228 239 172 151 143 131 234 222
133 138 140 138 137 122 119 114 114 122 131 148 153 149 151 163 171 182 182 172 191 193 189 201 209 207 208 214 214 214 220 221 228 248 274 284 223 194 205 212 224 233 228 225 222 219 225 222 226 232 237 237 234 236 234 240 200 157 165 167 170 191 243
102 102 101 103 101 99 101 104 109 110 109 106 98 106 118 134 138 139 141 151 120 116 161 202 216 211 215 219 222 221 218 220 224 223 196 214 244 248 213 221 225 222 226 223 223 224 220 230 229 225 233 244 245 246 250 253 144 166 160 162 162 170 221
108 122 119 112 102 102 106 106 105 108 106 107 114 107 92 82 79 74 74 63 73 101 74 67 59 35 30 260 251 231 215 215 230 226 223 222 230 246 241 239 243 249 233 236 236 227 230 223 227 237 235 237 244 248 254 304 62 158 161 160 167 167 202
110 98 101 103 107 106 102 108 111 116 118 110 108 117 121 113 109 109 106 107 100 86 80 72 73 64 44 42 45 20 352 256 210 225 233 231 236 246 244 237 268 262 266 253 252 261 243 244 234 231 232 237 243 251 255 48 13 18 18 40 129 159 210
101 105 98 95 102 101 106 105 107 113 116 124 117 119 111 100 96 94 90 84 83 82 80 78 74 66 68 65 71 72 53 44 51 239 233 211 212 236 239 242 246 257 280 285 281 265 261 259 273 265 335 3 358 348 27 40 44 21 21 9 25 331 242
109 105 105 106 104 100 98 96 72 75 78 75 67 59 82 102 102 99 96 95 90 84 82 80 76 71 68 71 69 70 70 68 69 55 41 28 62 205 204 204 205 225 320 289 288 278 309 298 277 347 10 51 104 124 174 32 23 23 47 53 17 299 254
101 95 98 104 107 106 105 108 107 105 108 98 84 77 77 87 87 87 90 88 88 90 89 87 85 83 77 72 69 67 70 74 73 73 71 85 133 136 54 58 41 47 32 2 12 24 53 37 326 226 13 122 125 81 131 77 28 8 31 30 46 345 287
84 97 102 96 87 83 82 81 86 94 95 97 102 105 113 113 112 110 108 102 96 91 86 82 82 81 82 84 82 74 67 67 78 95 94 65 67 82 101 74 70 93 68 66 43 73 128 171 42 355 353 53 106 65 70 86 62 25 21 35 28 10 286
61 89 95 89 82 80 85 90 90 84 81 82 87 94 86 76 67 54 56 75 91 92 86 78 68 70 77 91 97 98 91 85 79 80 87 91 80 59 37 34 45 43 75 65 48 94 91 78 99 110 51 92 110 98 80 73 59 31 19 21 24 8 266
74 67 61 57 71 83 69 58 61 65 64 57 55 58 63 70 73 71 69 67 63 59 62 65 65 58 56 54 69 77 87 87 70 79 78 61 66 65 64 63 74 99 122 131 153 146 99 111 87 74 73 66 69 75 59 66 72 45 27 22 23 20 26
62 60 69 70 55 59 74 82 82 84 84 80 74 69 71 70 66 66 62 61 62 59 49 44 46 49 45 40 38 50 53 47 51 57 80 77 76 75 74 71 94 96 97 131 117 104 90 69 88 86 76 75 71 66 71 54 53 59 46 33 30 31 25
100 87 62 46 39 42 66 59 56 55 56 54 53 58 68 76 77 74 65 57 47 50 60 53 47 47 51 48 51 55 59 45 28 20 32 59 58 69 77 73 69 69 70 91 100 103 107 109 108 102 89 83 84 87 78 76 59 38 65 56 43 33 37
76 72 79 74 50 24 23 32 45 45 42 41 43 48 52 61 67 65 64 58 42 33 35 51 58 72 66 53 57 42 34 43 30 31 21 34 70 79 70 72 87 100 106 96 113 109 113 124 131 134 138 117 113 111 114 128 126 69 31 51 68 57 47
113 112 96 76 76 74 46 8 8 32 53 50 52 49 47 57 63 59 54 44 42 38 24 31 42 22 69 85 47 110 92 54 26 10 355 280 103 73 100 92 70 69 52 96 95 108 150 169 136 136 114 127 115 135 154 138 143 132 160 196 127 128 246
95 98 98 95 88 86 98 81 43 22 10 28 48 58 62 56 52 56 45 33 22 24 32 25 35 33 22 43 49 9 139 165 145 132 165 232 111 75 28 62 76 82 116 112 97 51 39 359 17 28 131 158 154 137 129 145 126 126 136 179 166 175 195
119 130 133 131 129 137 119 104 93 84 71 24 352 21 57 55 63 68 75 83 130 79 33 12 106 107 55 45 89 105 34 350 356 146 126 338 167 130 118 82 84 79 41 14 53 109 77 47 10 13 293 261 344 140 135 158 128 96 70 38 358 12 339
150 151 146 149 156 159 147 139 131 136 114 116 70 5 18 38 30 34 19 22 34 61 83 36 350 42 60 58 78 58 113 103 232 283 56 38 17 31 34 42 51 59 50 28 15 8 18 41 50 19 18 4 8 353 337 73 66 45 26 22 12 7 347
149 144 146 156 159 161 146 137 134 132 134 131 141 127 112 54 28 21 54 40 50 35 45 53 32 352 356 103 104 91 342 39 47 26 35 114 97 62 36 17 24 36 65 50 25 21 7 356 25 38 19 25 28 10 354 33 44 34 350 1 14 355 352
151 143 140 105 121 141 142 141 141 139 132 144 139 132 128 125 104 56 41 42 43 42 52 48 39 41 32 17 16 15 8 24 56 44 355 12 57 100 91 54 46 28 29 62 79 67 36 28 43 6 358 357 58 39 34 29 34 29 5 7 6 342 301
166 164 166 146 115 51 60 110 129 142 138 137 139 123 117 100 97 85 64 53 47 45 48 34 44 52 73 62 45 22 2 14 23 30 25 11 9 13 52 144 73 43 67 99 121 102 104 96 90 56 41 26 55 86 88 106 108 65 70 37 322 294 281
178 174 172 171 169 159 173 159 161 156 151 140 147 141 144 121 104 96 87 56 52 50 49 36 40 42 37 43 54 56 24 38 33 9 14 19 359 359 341 318 148 136 31 31 85 127 127 121 105 95 89 70 50 42 84 63 43 22 12 356 348 339 317